Weather History for KUZA - May, 2013

Change the Weather History Date:

Thursday, May 2, 2013

  Actual Average Record
Temperature  
Mean Temperature 60 °F -  
Max Temperature 64 °F 77 °F 90 °F (1959)
Min Temperature 57 °F 54 °F 36 °F (1963)
Degree Days  
Heating Degree Days 4    
Growing Degree Days 10 (Base 50)    
Moisture  
Dew Point 57 °F    
Average Humidity 92    
Maximum Humidity 100    
Minimum Humidity 78    
Precipitation  
Precipitation 0.09 in - - ()
Sea Level Pressure  
Sea Level Pressure 30.25 in    
Wind  
Wind Speed 6 mph (NE)    
Max Wind Speed 9 mph    
Max Gust Speed 17 mph    
Visibility 7 miles    
Events Rain    
Averages and records for this station are not official NWS values.
T = Trace of Precipitation, MM = Missing Value Source: NWS Daily Summary

Daily Weather History Graph

Daily Weather History Graph

Search for Another Location

Airport or City:

Trip Planner

Search our weather history database for the weather conditions in past years. The results will help you decide how hot, cold, wet, or windy it might be!

Date:

Astronomy

May. 02, 2013 Rise Set
Actual Time 6:32 AM EDT 8:10 PM EDT
Civil Twilight 6:05 AM EDT 8:37 PM EDT
Nautical Twilight 5:32 AM EDT 9:10 PM EDT
Astronomical Twilight 4:57 AM EDT 9:45 PM EDT
Moon 2:01 AM EDT 1:14 PM EDT
Length of Visible Light 14h 32m
Length of Day
13h 38m
Waning Gibbous, 48% of the Moon is Illuminated
May 2
Waning Gibbous
May 9
New
May 18
First Quarter
May 25
Full
May 31
Last Quarter

Hourly Weather History & Observations

Time (EDT) Temp. Dew Point Humidity Pressure Visibility Wind Dir Wind Speed Gust Speed Precip Events Conditions
12:31 AM 57.9 °F 57.0 °F 97% 30.28 in 3.0 mi Variable 3.5 mph - 0.01 in Rain Light Rain
12:54 AM 57.9 °F 57.0 °F 97% 30.26 in 6.0 mi NE 6.9 mph - 0.02 in   Overcast
1:54 AM 57.9 °F 57.0 °F 97% 30.25 in 5.0 mi Variable 6.9 mph - 0.02 in   Overcast
2:54 AM 57.0 °F 57.0 °F 100% 30.24 in 4.0 mi NNE 6.9 mph - 0.00 in Rain Light Rain
3:40 AM 57.0 °F 57.0 °F 100% 30.24 in 2.5 mi NE 5.8 mph - 0.02 in Rain Light Rain
3:54 AM 57.0 °F 57.0 °F 100% 30.23 in 2.5 mi NE 3.5 mph - 0.03 in Rain Light Rain
4:08 AM 57.0 °F 57.0 °F 100% 30.25 in 3.0 mi Variable 3.5 mph - 0.01 in Rain Rain
4:54 AM 57.9 °F 57.0 °F 97% 30.22 in 5.0 mi Variable 5.8 mph - 0.02 in   Overcast
5:21 AM 57.9 °F 57.0 °F 97% 30.24 in 4.0 mi ENE 6.9 mph - 0.00 in   Overcast
5:54 AM 57.9 °F 57.0 °F 97% 30.23 in 4.0 mi Variable 4.6 mph - 0.00 in   Overcast
6:40 AM 57.9 °F 57.0 °F 97% 30.25 in 7.0 mi ENE 8.1 mph - N/A   Overcast
6:54 AM 57.9 °F 57.0 °F 97% 30.24 in 6.0 mi Variable 4.6 mph - N/A   Overcast
7:54 AM 57.9 °F 57.0 °F 97% 30.25 in 5.0 mi Variable 5.8 mph - N/A   Overcast
8:54 AM 59.0 °F 57.0 °F 93% 30.27 in 4.0 mi Variable 6.9 mph - N/A   Overcast
9:54 AM 59.0 °F 57.9 °F 96% 30.27 in 6.0 mi Variable 5.8 mph - N/A   Overcast
10:54 AM 57.9 °F 57.0 °F 97% 30.28 in 5.0 mi ENE 8.1 mph - N/A   Overcast
11:54 AM 59.0 °F 57.0 °F 93% 30.29 in 7.0 mi ENE 8.1 mph - N/A   Overcast
12:54 PM 60.1 °F 57.0 °F 90% 30.29 in 6.0 mi NE 5.8 mph - N/A   Overcast
1:54 PM 60.1 °F 57.9 °F 93% 30.28 in 7.0 mi ENE 9.2 mph - N/A   Overcast
2:26 PM 61.0 °F 57.9 °F 90% 30.29 in 10.0 mi Variable 6.9 mph - N/A   Overcast
2:54 PM 61.0 °F 57.0 °F 87% 30.28 in 7.0 mi Variable 5.8 mph - N/A   Overcast
3:54 PM 61.0 °F 57.9 °F 90% 30.26 in 6.0 mi ENE 8.1 mph - N/A   Overcast
4:31 PM 63.0 °F 57.9 °F 84% 30.26 in 10.0 mi ENE 6.9 mph - N/A   Overcast
4:54 PM 63.0 °F 57.0 °F 81% 30.23 in 10.0 mi ENE 8.1 mph - N/A   Overcast
5:54 PM 63.0 °F 57.0 °F 81% 30.22 in 10.0 mi Variable 5.8 mph - N/A   Overcast
6:03 PM 63.0 °F 57.0 °F 81% 30.23 in 10.0 mi NE 8.1 mph - N/A   Overcast
6:54 PM 64.0 °F 57.0 °F 78% 30.21 in 10.0 mi Variable 5.8 mph - N/A   Overcast
7:54 PM 63.0 °F 57.0 °F 81% 30.22 in 10.0 mi NE 8.1 mph - N/A   Overcast
8:54 PM 61.0 °F 55.9 °F 83% 30.23 in 10.0 mi NE 4.6 mph - N/A   Overcast
9:54 PM 60.1 °F 55.9 °F 86% 30.24 in 10.0 mi Variable 5.8 mph 17.3 mph N/A   Overcast
10:20 PM 60.1 °F 55.9 °F 86% 30.25 in 10.0 mi Variable 6.9 mph - N/A   Overcast
10:54 PM 59.0 °F 55.9 °F 90% 30.24 in 7.0 mi ENE 5.8 mph - N/A   Overcast
11:54 PM 59.0 °F 55.9 °F 90% 30.22 in 8.0 mi NNE 6.9 mph - N/A   Overcast